[[{"header":{"parameterUnit":"m.s-1","parameterCategory":1,"la1":30.2992,"la2":30.254,"lo1":-89.0895,"lo2":-89.0443,"dy":0.0025,"dx":0.0025,"nx":19,"ny":19,"refTime":"2026-05-06T21:00:00:Z","depth":0,"parameterNumber":2,"parameterNumberName":"U-component_of_WINDS"},"data":[0,0,0,0.5298,0.5301,0.5455,0.5456,0.5647,0.5649,0,0,0,0,0,0,0,0,0,0,0,0.5247,0.5248,0.5298,0.5302,0.5455,0.5456,0.5647,0.5649,0,0,0,0,0,0,0,0,0,0,0,0.5246,0.5247,0.5249,0.5302,0.5455,0.5456,0.5646,0.5533,0,0,0,0,0,0,0,0,0,0,0.5385,0.533,0.5247,0.5249,0.5303,0.5455,0.5456,0.5528,0.554,0.5574,0,0.56,0,0.5627,0.5661,0.5662,0,0,0,0.5307,0.532,0.5367,0.5249,0.5304,0.5455,0.5388,0.5535,0.5549,0.559,0.5603,0.561,0.563,0.5662,0.5663,0.5833,0.5833,0,0,0.5299,0.5272,0.5357,0.5375,0.5348,0.5383,0.5392,0.5543,0.5556,0.5604,0.5615,0.5633,0.5663,0.5665,0.5832,0.5833,0,0,0,0.5271,0.5265,0.5309,0.5367,0.5395,0.5387,0.5398,0.555,0.5566,0.5617,0.5636,0.5664,0.5667,0.5832,0.5832,0.583,0,0,0,0.5266,0.5249,0.5305,0.529,0.5392,0.5474,0.5401,0.5555,0.5573,0.5635,0.5664,0.5668,0.5831,0.5832,0.5829,0.5834,0,0,0,0.5239,0.5246,0.5266,0.5288,0.5353,0.5472,0.5497,0.556,0.5584,0.5662,0.5669,0.5831,0.5832,0.5828,0.5833,0.587,0,0,0,0.5203,0.5264,0.5265,0.5341,0.5351,0.5469,0.5496,0.5586,0.5652,0.5665,0.5831,0.5832,0.5828,0.5832,0.5868,0.5895,0.5903,0,0,0.5265,0.5271,0.5317,0.5323,0.5433,0.5448,0.5559,0.5647,0.5681,0.5781,0.5785,0.583,0.5832,0.5869,0.5963,0.597,0,0,0,0.5328,0.5361,0.5396,0.5456,0.5523,0.558,0.5654,0.5686,0.5772,0.5725,0.5854,0.5857,0.588,0.5894,0.59,0.5921,0.5838,0.5838,0.5838,0.5377,0.5415,0.5494,0.555,0.5608,0.5682,0.5733,0.579,0.5814,0.5844,0.5873,0.5925,0.5941,0.5945,0.5966,0.5891,0.5891,0.5891,0.5891,0.5471,0.5523,0.555,0.5637,0.5677,0.5752,0.5826,0.584,0.5916,0.5906,0.5929,0.5913,0.5951,0.5972,0.5892,0.5892,0.5892,0.5892,0.5892,0.5506,0.5538,0.5575,0.5664,0.573,0.5786,0.5857,0.5892,0.5926,0.5948,0.5983,0.5983,0.5987,0.5962,0.5962,0.5962,0.5963,0.5963,0.5963,0.5528,0.5569,0.5623,0.5698,0.5741,0.5802,0.5876,0.592,0.5978,0.5999,0.5999,0.6019,0.5947,0.5928,0.5966,0.5965,0.5965,0.5965,0.5964,0.5607,0.5594,0.5677,0.572,0.581,0.5873,0.5917,0.6003,0.6045,0.6079,0.6094,0.6036,0.6045,0.6041,0.6025,0.6086,0.6086,0.6086,0.6086,0.5636,0.5643,0.5735,0.5801,0.5869,0.5917,0.6011,0.607,0.613,0.6159,0.6156,0.6138,0.6132,0.6145,0.6139,0.6124,0.6209,0.6209,0.6209,0.5686,0.5701,0.5773,0.5829,0.5903,0.5965,0.6055,0.6131,0.6197,0.6215,0.6182,0.6177,0.6149,0.6138,0.6154,0.6143,0.6117,0,0]},{"header":{"parameterUnit":"m.s-1","parameterCategory":1,"la1":30.2992,"la2":30.254,"lo1":-89.0895,"lo2":-89.0443,"dy":0.0025,"dx":0.0025,"nx":19,"ny":19,"refTime":"2026-05-06T21:00:00:Z","depth":0,"parameterNumber":3,"parameterNumberName":"V-component_of_WINDS"},"data":[0,0,0,1.9951,1.9952,1.9992,1.9993,2.0057,2.0058,0,0,0,0,0,0,0,0,0,0,0,1.9948,1.9949,1.9951,1.9952,1.9992,1.9993,2.0057,2.0058,0,0,0,0,0,0,0,0,0,0,0,1.9948,1.9949,1.995,1.9952,1.9992,1.9993,2.0057,2.0021,0,0,0,0,0,0,0,0,0,0,1.998,1.9987,1.9949,1.995,1.9953,1.9992,1.9993,2.0019,2.0024,2.0045,0,2.0068,0,2.0064,2.0063,2.0063,0,0,0,1.9945,1.9984,1.9986,1.995,1.9953,1.9992,1.9972,2.0022,2.0026,2.005,2.0068,2.007,2.0065,2.0064,2.0064,2.0211,2.0212,0,0,1.9943,1.9961,1.9983,1.999,1.9986,1.9971,1.9974,2.0024,2.0045,2.0069,2.0072,2.0066,2.0064,2.0065,2.021,2.0211,0,0,0,1.9941,1.996,1.996,1.9987,1.9994,1.9972,1.9975,2.0042,2.0041,2.0072,2.0067,2.0065,2.0066,2.0209,2.021,2.0276,0,0,0,1.9939,1.9959,1.996,1.9971,1.9993,2.0019,1.9993,2.0038,2.0043,2.0066,2.0065,2.0066,2.0207,2.0209,2.0272,2.0304,0,0,0,1.9942,1.9959,1.9968,1.9972,1.999,2.0018,2.0019,2.0038,2.004,2.0064,2.0067,2.0207,2.0209,2.0268,2.0297,2.0345,0,0,0,1.9951,2.0028,1.9969,2.0053,1.999,2.0059,2.0019,2.007,2.0098,2.0065,2.0208,2.021,2.0267,2.0294,2.0341,2.0386,2.0408,0,0,2.0059,2.0042,2.009,2.0038,2.0122,2.0052,2.0145,2.0154,2.0141,2.0188,2.0191,2.0273,2.0297,2.0344,2.0525,2.0542,0,0,0,2.013,2.0164,2.0182,2.021,2.0218,2.0227,2.022,2.0223,2.0261,2.0169,2.0304,2.0318,2.0344,2.0365,2.0379,2.04,2.0221,2.0221,2.0221,2.0307,2.0284,2.036,2.034,2.0367,2.0358,2.0376,2.0378,2.0349,2.0381,2.0394,2.0507,2.0532,2.0543,2.0564,2.0418,2.0419,2.0419,2.0419,2.046,2.0503,2.0459,2.0516,2.049,2.0538,2.0531,2.0508,2.0547,2.0496,2.0518,2.0462,2.0562,2.0579,2.0424,2.0423,2.0422,2.0422,2.0422,2.0571,2.0587,2.0589,2.0623,2.0652,2.063,2.0668,2.0644,2.0622,2.0644,2.0653,2.0652,2.0645,2.0651,2.0651,2.0652,2.0652,2.0652,2.0652,2.0685,2.0684,2.072,2.0733,2.0745,2.0758,2.0747,2.0758,2.0764,2.0743,2.0743,2.0708,2.0577,2.0543,2.0658,2.0657,2.0657,2.0656,2.0656,2.0843,2.0803,2.0858,2.087,2.088,2.0909,2.0877,2.0901,2.0907,2.0926,2.0886,2.0794,2.0776,2.0764,2.0735,2.0893,2.0893,2.0893,2.0893,2.0935,2.0923,2.0971,2.0991,2.1008,2.0984,2.1044,2.1036,2.1021,2.1022,2.0996,2.0957,2.0946,2.0934,2.0918,2.0891,2.1085,2.1085,2.1085,2.1029,2.1017,2.1073,2.1057,2.1063,2.1068,2.1122,2.1146,2.1121,2.1092,2.1022,2.1014,2.095,2.0931,2.09,2.0877,2.0826,0,0]}]]